This is the latest recevied weather packets stored in our database for station/object KY4LEX. If no packets are shown the sender has not sent any weather packets the latest 1 day(s).
| Time | Temp. | Humidity | Pressure | Rain* | Wind** | Luminosity | Snow |
|---|---|---|---|---|---|---|---|
| 1778046977 | 14.44° C | 95% | 1011.6 hPa | 4.83 mm | 0.89 m/s, 305° | 0 W/m² | - |
| 1778046674 | 14.44° C | 95% | 1011.7 hPa | 4.83 mm | 0.89 m/s, 155° | 0 W/m² | - |
| 1778046371 | 14.44° C | 95% | 1011.9 hPa | 6.1 mm | 0.89 m/s, 157° | 0 W/m² | - |
| 1778046067 | 14.44° C | 94% | 1011.8 hPa | 3.05 mm | 0.89 m/s, 275° | 0 W/m² | - |
| 1778045765 | 15° C | 94% | 1011.7 hPa | 0 mm | 0 m/s | 0 W/m² | - |
| 1778045463 | 14.44° C | 94% | 1011.7 hPa | 0 mm | 0.45 m/s, 1° | 0 W/m² | - |
| 1778045161 | 14.44° C | 94% | 1011.7 hPa | 0 mm | 0.45 m/s, 3° | 0 W/m² | - |
| 1778044859 | 15° C | 94% | 1011.7 hPa | 1.78 mm | 0 m/s | 0 W/m² | - |
| 1778044555 | 15° C | 93% | 1011.7 hPa | 1.78 mm | 0 m/s | 0 W/m² | - |
| 1778044252 | 15° C | 92% | 1012.1 hPa | 0 mm | 1.79 m/s, 308° | 0 W/m² | - |
| 1778043950 | 14.44° C | 94% | 1011.9 hPa | 0 mm | 0.89 m/s, 6° | 0 W/m² | - |
| 1778043647 | 14.44° C | 94% | 1011.9 hPa | 0 mm | 0.45 m/s, 348° | 0 W/m² | - |
| 1778043343 | 14.44° C | 94% | 1012 hPa | 0 mm | 0.89 m/s, 359° | 0 W/m² | - |
| 1778043040 | 14.44° C | 94% | 1012 hPa | 0 mm | 0 m/s | 0 W/m² | - |
| 1778042738 | 14.44° C | 94% | 1011.8 hPa | 0 mm | 0 m/s | 0 W/m² | - |
| 1778042435 | 14.44° C | 95% | 1011.9 hPa | 0 mm | 0 m/s | 0 W/m² | - |
| 1778042132 | 14.44° C | 95% | 1012.3 hPa | 0 mm | 0 m/s | 0 W/m² | - |
| 1778041830 | 14.44° C | 95% | 1012 hPa | 0 mm | 0 m/s | 0 W/m² | - |
| 1778041529 | 14.44° C | 95% | 1012.2 hPa | 0 mm | 0 m/s | 0 W/m² | - |
| 1778041227 | 14.44° C | 95% | 1012.3 hPa | 0 mm | 0 m/s | 0 W/m² | - |
| 1778040925 | 14.44° C | 95% | 1012.5 hPa | 1.27 mm | 0 m/s | 0 W/m² | - |
| 1778040621 | 14.44° C | 95% | 1012.6 hPa | 3.05 mm | 0 m/s | 0 W/m² | - |
| 1778040319 | 14.44° C | 94% | 1012.7 hPa | 3.05 mm | 0 m/s | 0 W/m² | - |
| 1778040015 | 15° C | 94% | 1012.7 hPa | 7.11 mm | 0 m/s | 0 W/m² | - |
| 1778039712 | 15° C | 93% | 1013 hPa | 7.87 mm | 0 m/s | 0 W/m² | - |
* Rain latest hour (hover to see other rain measurements)
** Current wind speed in m/s (hover to see current wind gust speed)